Location: Meriden
(44.0740°N, 93.3870°W)
Time: 10:12:43
(UTC-05:00)

Amateur Radio Satellites - All Passes

Search period start: 29 March 2017 09:42
Search period end: 30 March 2017 09:42
Location: Meriden, 44.0740°N, 93.3870°W

Satellite Date Start Highest point End Downlink Frequencies (MHz)
Time Altitude Azimuth
PCSat 29 Mar 09:46:51 09:52:13 70° 118° (ESE) 09:57:39 145.827
TIGRISAT 29 Mar 09:52:02 09:56:19 36° 69° (ENE) 10:00:34 435.000
UWE-3 29 Mar 09:52:50 09:57:08 79° 284° (WNW) 10:01:19 435.000/436.395/437.385
PRISM 29 Mar 09:54:07 09:58:11 79° 75° (ENE) 10:02:18 437.425
UNISAT 6 29 Mar 10:02:54 10:07:25 50° 72° (ENE) 10:11:54 437.425
SEEDS 29 Mar 10:06:22 10:09:47 25° 293° (WNW) 10:13:11 437.485
HO-68 29 Mar 10:12:28 10:18:57 39° 298° (WNW) 10:25:26 435.675
Oscar 11 29 Mar 10:13:18 10:17:37 78° 101° (E) 10:21:55 .
NO-84 29 Mar 10:18:21 10:18:52 10° 3° (N) 10:19:23 435.350 FM
CUTE 1.7 + AOD 2 29 Mar 10:20:19 10:22:19 13° 298° (WNW) 10:24:20 437.475
ZACube-1 29 Mar 10:26:41 10:30:50 57° 287° (WNW) 10:34:54 437.345
DELFI C3 29 Mar 10:32:57 10:36:42 38° 98° (E) 10:40:27 145.870
CUBEBUG 2 29 Mar 10:33:59 10:37:11 20° 296° (WNW) 10:40:18 437.445
AIST 2D 29 Mar 10:52:29 10:55:00 19° 68° (ENE) 10:57:32 435.315
AO-73 29 Mar 10:53:32 10:57:18 33° 291° (WNW) 11:01:00 145.935
LO-87 29 Mar 11:12:36 11:14:04 12° 90° (E) 11:15:30 145.935 - 145.965
FO-29 29 Mar 11:15:22 11:23:06 67° 258° (WSW) 11:30:18 435.910
NANOSAT C BR1 29 Mar 11:24:27 11:28:05 28° 68° (ENE) 11:31:43 145.865
ESTCUBE 1 29 Mar 11:27:08 11:28:27 11° 88° (E) 11:29:46 437.505/2401.250
TIGRISAT 29 Mar 11:29:12 11:33:04 25° 266° (W) 11:36:54 435.000
EO-79 29 Mar 11:30:46 11:34:39 35° 69° (ENE) 11:38:33 145.935-145.965
PCSat 29 Mar 11:31:54 11:36:09 23° 318° (NW) 11:40:26 145.827
UNISAT 6 29 Mar 11:41:08 11:44:22 18° 268° (W) 11:47:36 437.425
Oscar 11 29 Mar 11:51:39 11:53:08 12° 300° (WNW) 11:54:36 .
NO-84 29 Mar 11:54:59 11:57:20 20° 24° (NNE) 11:59:47 435.350 FM
POLYITAN 1 29 Mar 11:59:27 12:03:43 72° 74° (ENE) 12:08:00 437.675
RS-15 29 Mar 12:02:37 12:13:26 42° 107° (ESE) 12:24:33 29.354- 29.394
QB50P2 29 Mar 12:04:13 12:08:31 87° 76° (ENE) 12:12:49 145.880/145.840
DELFI C3 29 Mar 12:08:26 12:11:14 19° 294° (WNW) 12:14:01 145.870
DUCHIFAT 1 29 Mar 12:11:27 12:15:42 80° 76° (ENE) 12:19:58 145.980
BUGSAT 1 29 Mar 12:15:10 12:18:54 30° 68° (ENE) 12:22:38 437.445
VELOX 1 29 Mar 12:24:57 12:27:19 14° 90° (E) 12:29:40 145.980
AIST 2D 29 Mar 12:24:58 12:28:03 28° 264° (W) 12:31:09 435.315
LO-87 29 Mar 12:44:15 12:47:47 47° 287° (WNW) 12:51:17 145.935 - 145.965
SPROUT 29 Mar 12:44:27 12:47:34 19° 93° (E) 12:50:40 437.525
NANOSAT C BR1 29 Mar 13:00:03 13:03:44 28° 264° (W) 13:07:26 145.865
ESTCUBE 1 29 Mar 13:01:16 13:05:48 77° 285° (WNW) 13:10:17 437.505/2401.250
AO-7 29 Mar 13:02:51 13:05:27 12° 38° (NE) 13:08:02 .
Oscar 19 29 Mar 13:03:52 13:08:28 35° 67° (ENE) 13:13:06 437.125/150
FO-29 29 Mar 13:06:12 13:09:09 12° 275° (W) 13:12:03 435.910
EO-79 29 Mar 13:07:08 13:10:29 22° 266° (W) 13:13:52 145.935-145.965
50 SAT 29 Mar 13:23:34 13:26:47 33° 98° (E) 13:30:00 437.505
DX 1 29 Mar 13:26:32 13:30:11 25° 95° (E) 13:33:48 434.975-435.025
SO-50 29 Mar 13:26:41 13:28:27 12° 108° (ESE) 13:30:12 436.795
NO-84 29 Mar 13:32:01 13:35:05 62° 221° (SW) 13:38:24 435.350 FM
POLYITAN 1 29 Mar 13:38:49 13:39:59 11° 271° (W) 13:41:09 437.675
Gurwin Techsat 1B 29 Mar 13:43:38 13:48:42 47° 70° (ENE) 13:53:48 435.225
BUGSAT 1 29 Mar 13:50:42 13:54:14 25° 265° (W) 13:57:48 437.445
UKube-1 29 Mar 13:59:41 14:03:46 39° 99° (E) 14:07:50 .
VELOX 1 29 Mar 13:59:44 14:04:10 61° 287° (WNW) 14:08:33 145.980
RS-15 29 Mar 14:13:19 14:25:21 67° 311° (NW) 14:37:45 29.354- 29.394
SPROUT 29 Mar 14:19:38 14:23:39 39° 289° (WNW) 14:27:38 437.525
Oscar 19 29 Mar 14:43:19 14:47:48 30° 264° (W) 14:52:19 437.125/150
AO-7 29 Mar 14:48:22 14:56:07 45° 60° (ENE) 15:03:51 .
50 SAT 29 Mar 14:57:20 14:59:34 16° 294° (WNW) 15:01:47 437.505
ITAMSAT 1 29 Mar 14:57:41 15:02:32 40° 68° (ENE) 15:07:23 435.822/435.867
DX 1 29 Mar 15:02:28 15:06:23 33° 292° (WNW) 15:10:18 434.975-435.025
SO-50 29 Mar 15:03:36 15:08:15 85° 305° (NW) 15:12:52 436.795
BEESAT 29 Mar 15:20:37 15:24:24 23° 94° (E) 15:28:10 436.000
Gurwin Techsat 1B 29 Mar 15:24:38 15:28:53 24° 267° (W) 15:33:08 435.225
UKube-1 29 Mar 15:36:16 15:39:33 21° 295° (WNW) 15:42:49 .
ITUPSAT 1 29 Mar 15:38:44 15:43:04 34° 97° (E) 15:47:22 437.325
O/OREOS (USA 219) 29 Mar 15:56:46 15:59:36 17° 100° (E) 16:02:28 437.305
RS-15 29 Mar 16:30:12 16:40:48 32° 342° (NNW) 16:51:28 29.354- 29.394
ITAMSAT 1 29 Mar 16:37:39 16:42:05 28° 265° (W) 16:46:33 435.822/435.867
AO-7 29 Mar 16:40:57 16:48:50 46° 260° (W) 16:56:45 .
MOZHAYETS 4 29 Mar 16:44:35 16:49:09 71° 102° (ESE) 16:53:41
SO-50 29 Mar 16:46:29 16:49:24 16° 325° (NW) 16:52:18 436.795
PCSat 29 Mar 16:50:56 16:54:23 17° 37° (NE) 16:57:49 145.827
BEESAT 29 Mar 16:57:52 17:02:19 40° 291° (WNW) 17:06:45 436.000
CUTE-I 29 Mar 17:13:26 17:16:50 17° 59° (ENE) 17:20:16 437.470
ITUPSAT 1 29 Mar 17:16:44 17:20:47 28° 294° (WNW) 17:24:50 437.325
XW-2F 29 Mar 17:20:13 17:21:39 12° 63° (ENE) 17:23:04 145.980 - 146.000
LilacSat-2 29 Mar 17:26:54 17:29:11 15° 65° (ENE) 17:31:29 437.200
O/OREOS (USA 219) 29 Mar 17:34:06 17:38:33 53° 297° (WNW) 17:43:04 437.305
NUDT-PHONESAT 29 Mar 17:34:44 17:36:45 14° 65° (ENE) 17:38:48 437.300
KKS-1 29 Mar 17:37:49 17:42:14 53° 100° (E) 17:46:36 437.445
KAITUO 1B 29 Mar 17:45:45 17:48:25 19° 67° (ENE) 17:51:05 145.475/437.950
CUBESAT XI-V 29 Mar 17:45:52 17:50:26 53° 100° (E) 17:55:00 437.345
XW-2D 29 Mar 17:46:29 17:49:35 24° 68° (ENE) 17:52:41 145.860 - 145.880
YUBILEINY 29 Mar 17:47:09 17:54:24 28° 65° (ENE) 18:01:37 435.215
XW-2B 29 Mar 17:52:21 17:55:36 27° 69° (ENE) 17:58:50 145.730 - 145.750
DOVE 4 29 Mar 17:58:34 18:03:12 51° 71° (ENE) 18:08:08 437.250
XW-2C 29 Mar 18:02:24 18:05:53 36° 71° (ENE) 18:09:23 145.795 - 145.815
STARS 29 Mar 18:04:23 18:08:38 45° 99° (E) 18:12:52 437.465
MOZHAYETS 4 29 Mar 18:23:25 18:25:44 14° 299° (WNW) 18:28:02
PCSat 29 Mar 18:33:16 18:38:44 76° 58° (ENE) 18:44:09 145.827
RS-15 29 Mar 18:47:44 18:58:20 31° 17° (NNE) 19:08:43 29.354- 29.394
CUTE-I 29 Mar 18:50:54 18:56:17 75° 258° (WSW) 19:01:41 437.470
XW-2F 29 Mar 18:51:35 18:55:19 58° 260° (W) 18:59:03 145.980 - 146.000
M-CUBED/EXP-1 PRIME 29 Mar 18:51:39 18:54:42 17° 96° (E) 18:57:43 437.505
HO-68 29 Mar 18:54:44 19:01:14 40° 63° (ENE) 19:07:47 435.675
LilacSat-2 29 Mar 18:59:29 19:03:09 42° 262° (W) 19:06:47 437.200
NUDT-PHONESAT 29 Mar 19:06:44 19:10:20 44° 261° (W) 19:13:56 437.300
KKS-1 29 Mar 19:15:26 19:18:22 17° 298° (WNW) 19:21:18 437.445
ISS 29 Mar 19:15:59 19:17:30 13° 132° (SE) 19:19:03 437.550
UWE-3 29 Mar 19:17:24 19:19:10 12° 60° (ENE) 19:20:55 435.000/436.395/437.385
KAITUO 1B 29 Mar 19:18:52 19:22:14 32° 263° (W) 19:25:37 145.475/437.950
XW-2D 29 Mar 19:20:32 19:23:42 25° 265° (W) 19:26:53 145.860 - 145.880
SEEDS 29 Mar 19:23:38 19:27:05 26° 68° (ENE) 19:30:32 437.485
CUBESAT XI-V 29 Mar 19:24:13 19:27:25 19° 297° (WNW) 19:30:37 437.345
XW-2B 29 Mar 19:26:46 19:29:46 22° 266° (W) 19:32:47 145.730 - 145.750
CUTE 1.7 + AOD 2 29 Mar 19:36:32 19:40:37 53° 73° (ENE) 19:44:43 437.475
XW-2C 29 Mar 19:37:42 19:40:13 17° 267° (W) 19:42:44 145.795 - 145.815
DOVE 4 29 Mar 19:37:45 19:41:13 20° 270° (W) 19:44:51 437.250
STARS 29 Mar 19:41:30 19:44:40 20° 297° (WNW) 19:47:48 437.465
YUBILEINY 29 Mar 19:43:20 19:51:58 69° 267° (W) 20:00:35 435.215
ZACube-1 29 Mar 19:49:18 19:51:47 15° 62° (ENE) 19:54:14 437.345
CUBEBUG 2 29 Mar 19:55:23 19:59:52 43° 71° (ENE) 20:04:18 437.445
XW-2A 29 Mar 19:56:13 19:59:39 65° 259° (W) 20:03:05 145.665 - 145.685
STRAND 1 29 Mar 20:02:28 20:07:02 32° 96° (E) 20:11:33 437.568
AO-73 29 Mar 20:14:20 20:17:51 23° 66° (ENE) 20:21:21 145.935
PCSat 29 Mar 20:18:12 20:21:27 16° 256° (WSW) 20:24:42 145.827
M-CUBED/EXP-1 PRIME 29 Mar 20:24:49 20:29:25 59° 292° (WNW) 20:34:00 437.505
AAUSAT CUBESAT 2 29 Mar 20:32:03 20:36:06 71° 76° (ENE) 20:40:13 437.432
Tancredo 1 29 Mar 20:33:59 20:37:07 76° 148° (SSE) 20:40:18 437.200
HO-68 29 Mar 20:42:10 20:48:54 44° 261° (W) 20:55:40 435.675
AO-85 29 Mar 20:45:11 20:49:33 63° 121° (ESE) 20:53:38 145.980
ISS 29 Mar 20:50:17 20:53:32 88° 326° (NNW) 20:56:49 437.550
UWE-3 29 Mar 20:50:18 20:54:57 85° 257° (WSW) 20:59:33 435.000/436.395/437.385
SEEDS 29 Mar 20:59:04 21:02:41 28° 265° (W) 21:06:19 437.485
RS-15 29 Mar 21:01:37 21:13:56 64° 47° (NE) 21:25:41 29.354- 29.394
Oscar 11 29 Mar 21:09:03 21:13:19 70° 76° (ENE) 21:17:37 .
CUTE 1.7 + AOD 2 29 Mar 21:14:32 21:16:47 14° 270° (W) 21:19:01 437.475
DELFI C3 29 Mar 21:19:57 21:23:16 27° 69° (ENE) 21:26:36 145.870
ZACube-1 29 Mar 21:23:03 21:27:33 65° 259° (W) 21:32:00 437.345
CUBEBUG 2 29 Mar 21:32:58 21:36:38 22° 267° (W) 21:40:16 437.445
STRAND 1 29 Mar 21:41:37 21:46:11 34° 294° (WNW) 21:50:43 437.568
YUBILEINY 29 Mar 21:43:26 21:47:01 13° 288° (WNW) 21:50:37 435.215
AO-73 29 Mar 21:49:42 21:53:53 37° 263° (W) 21:58:02 145.935
SO-50 29 Mar 21:53:50 21:57:16 21° 39° (NE) 22:00:41 436.795
Tancredo 1 29 Mar 22:10:45 22:13:30 26° 345° (NNW) 22:16:15 437.200
AAUSAT CUBESAT 2 29 Mar 22:11:45 22:12:03 10° 272° (W) 22:12:22 437.432
FO-29 29 Mar 22:26:38 22:29:32 14° 85° (E) 22:32:17 435.910
AO-85 29 Mar 22:27:16 22:30:16 18° 319° (NW) 22:33:10 145.980
ISS 29 Mar 22:27:33 22:30:20 25° 347° (NNW) 22:33:09 437.550
ESTCUBE 1 29 Mar 22:27:55 22:30:07 14° 60° (ENE) 22:32:18 437.505/2401.250
BEESAT 3 29 Mar 22:34:11 22:38:07 86° 310° (NW) 22:42:07 437.485
Oscar 11 29 Mar 22:48:37 22:49:56 11° 272° (W) 22:51:16 .
DELFI C3 29 Mar 22:54:47 22:58:01 24° 265° (W) 23:01:16 145.870
BEESAT 2 29 Mar 22:58:04 23:01:59 68° 121° (ESE) 23:05:59 435.950
PRISM 29 Mar 23:08:58 23:13:09 78° 285° (WNW) 23:17:19 437.425
RS-15 29 Mar 23:14:48 23:25:58 44° 252° (WSW) 23:36:41 29.354- 29.394
TIGRISAT 29 Mar 23:18:20 23:22:41 62° 100° (E) 23:26:56 435.000
LO-87 29 Mar 23:21:13 23:24:49 81° 76° (ENE) 23:28:28 145.935 - 145.965
VELOX 1 29 Mar 23:23:42 23:26:24 16° 62° (ENE) 23:29:06 145.980
UNISAT 6 29 Mar 23:29:39 23:34:04 89° 113° (ESE) 23:38:22 437.425
SO-50 29 Mar 23:33:40 23:38:08 64° 239° (WSW) 23:42:35 436.795
SPROUT 29 Mar 23:39:24 23:42:26 19° 64° (ENE) 23:45:29 437.525
POLYITAN 1 29 Mar 23:45:57 23:46:22 10° 88° (E) 23:46:47 437.675
Tancredo 1 29 Mar 23:47:48 23:50:19 21° 6° (N) 23:52:50 437.200
AIST 2D 29 Mar 23:48:56 23:51:21 18° 93° (E) 23:53:46 435.315
QB50P2 29 Mar 23:49:27 23:51:18 13° 90° (E) 23:53:09 145.880/145.840
DUCHIFAT 1 29 Mar 23:56:19 23:57:34 11° 89° (E) 23:58:48 145.980
50 SAT 29 Mar 23:59:07 00:01:27 17° 66° (ENE) 00:03:48 437.505
ESTCUBE 1 30 Mar 00:01:53 00:06:20 71° 258° (WSW) 00:10:50 437.505/2401.250
ISS 30 Mar 00:04:51 00:07:33 23° 8° (N) 00:10:14 437.550
FO-29 30 Mar 00:09:37 00:15:33 79° 287° (WNW) 00:20:53 435.910
BEESAT 3 30 Mar 00:14:18 00:16:20 14° 324° (NW) 00:18:24 437.485
DX 1 30 Mar 00:23:23 00:27:02 27° 66° (ENE) 00:30:42 434.975-435.025
BEESAT 2 30 Mar 00:37:32 00:40:11 17° 321° (NW) 00:42:52 435.950
NANOSAT C BR1 30 Mar 00:42:12 00:46:12 39° 98° (E) 00:50:08 145.865
EO-79 30 Mar 00:49:08 00:53:17 52° 100° (E) 00:57:23 145.935-145.965
UKube-1 30 Mar 00:55:18 00:59:19 40° 70° (ENE) 01:03:23 .
TIGRISAT 30 Mar 00:56:30 00:58:51 14° 299° (WNW) 01:01:10 435.000
VELOX 1 30 Mar 00:58:03 01:02:23 57° 259° (W) 01:06:47 145.980
UNISAT 6 30 Mar 01:09:14 01:10:02 10° 302° (WNW) 01:10:49 437.425
SPROUT 30 Mar 01:13:55 01:18:02 44° 261° (W) 01:22:10 437.525
Oscar 19 30 Mar 01:16:52 01:17:28 10° 87° (E) 01:18:03 437.125/150
POLYITAN 1 30 Mar 01:18:26 01:22:41 74° 284° (WNW) 01:26:51 437.675
AIST 2D 30 Mar 01:21:36 01:24:38 28° 290° (WNW) 01:27:38 435.315
QB50P2 30 Mar 01:23:18 01:27:30 60° 287° (WNW) 01:31:38 145.880/145.840
Tancredo 1 30 Mar 01:23:51 01:26:58 47° 25° (NNE) 01:30:04 437.200
DUCHIFAT 1 30 Mar 01:29:30 01:33:42 68° 285° (WNW) 01:37:50 145.980
BUGSAT 1 30 Mar 01:30:14 01:34:11 40° 98° (E) 01:38:03 437.445
50 SAT 30 Mar 01:31:13 01:34:16 29° 263° (W) 01:37:22 437.505
ISS 30 Mar 01:41:14 01:44:29 58° 27° (NNE) 01:47:45 437.550
FO-29 30 Mar 01:56:58 01:59:29 13° 308° (NW) 02:01:54 435.910
DX 1 30 Mar 01:59:16 02:03:07 30° 263° (W) 02:07:00 434.975-435.025
Gurwin Techsat 1B 30 Mar 01:59:27 02:02:44 16° 90° (E) 02:05:59 435.225
O/OREOS (USA 219) 30 Mar 02:03:24 02:07:47 41° 60° (ENE) 02:12:09 437.305
NANOSAT C BR1 30 Mar 02:18:34 02:21:38 20° 295° (WNW) 02:24:42 145.865
EO-79 30 Mar 02:26:02 02:28:38 16° 297° (WNW) 02:31:12 145.935-145.965
BEESAT 30 Mar 02:28:10 02:32:24 32° 67° (ENE) 02:36:38 436.000
UKube-1 30 Mar 02:32:21 02:35:31 20° 267° (W) 02:38:42 .
ITUPSAT 1 30 Mar 02:46:37 02:51:12 47° 70° (ENE) 02:55:48 437.325
Oscar 19 30 Mar 02:52:20 02:57:33 83° 104° (ESE) 03:02:45 437.125/150
Tancredo 1 30 Mar 03:00:14 03:02:56 25° 223° (SW) 03:05:38 437.200
BUGSAT 1 30 Mar 03:06:17 03:09:15 19° 296° (WNW) 03:12:11 437.445
ITAMSAT 1 30 Mar 03:11:12 03:12:57 12° 88° (E) 03:14:41 435.822/435.867
ISS 30 Mar 03:18:10 03:20:44 21° 224° (SW) 03:23:17 437.550
AO-85 30 Mar 03:36:10 03:37:47 12° 35° (NE) 03:39:26 145.980
Gurwin Techsat 1B 30 Mar 03:37:52 03:43:11 69° 287° (WNW) 03:48:27 435.225
O/OREOS (USA 219) 30 Mar 03:43:24 03:46:55 22° 258° (WSW) 03:50:25 437.305
MOZHAYETS 4 30 Mar 03:47:30 03:52:05 80° 75° (ENE) 03:56:41
BEESAT 30 Mar 04:05:59 04:10:09 30° 264° (W) 04:14:20 436.000
ITUPSAT 1 30 Mar 04:25:44 04:29:16 20° 267° (W) 04:32:48 437.325
Oscar 19 30 Mar 04:33:21 04:36:11 15° 302° (WNW) 04:39:00 437.125/150
KKS-1 30 Mar 04:36:54 04:41:17 59° 72° (ENE) 04:45:43 437.445
AO-7 30 Mar 04:40:09 04:48:18 57° 103° (ESE) 04:56:25 .
ITAMSAT 1 30 Mar 04:47:53 04:53:07 89° 281° (WNW) 04:58:18 435.822/435.867
CUBESAT XI-V 30 Mar 04:50:19 04:54:50 60° 73° (ENE) 04:59:22 437.345
STARS 30 Mar 05:02:01 05:06:16 48° 71° (ENE) 05:10:34 437.465
BEESAT 3 30 Mar 05:13:20 05:15:28 14° 36° (NE) 05:17:35 437.485
AO-85 30 Mar 05:14:55 05:18:50 79° 55° (NE) 05:22:52 145.980
Gurwin Techsat 1B 30 Mar 05:20:56 05:22:08 11° 306° (NW) 05:23:21 435.225
MOZHAYETS 4 30 Mar 05:28:36 05:29:48 11° 272° (W) 05:31:01
BEESAT 2 30 Mar 05:38:25 05:39:50 11° 33° (NNE) 05:41:15 435.950
M-CUBED/EXP-1 PRIME 30 Mar 05:38:43 05:41:47 23° 59° (ENE) 05:45:04 437.505
DOVE 4 30 Mar 05:57:17 06:00:13 15° 87° (E) 06:03:07 437.250
KKS-1 30 Mar 06:15:46 06:18:14 14° 269° (W) 06:20:42 437.445
XW-2F 30 Mar 06:23:54 06:25:32 12° 90° (E) 06:27:09 145.980 - 146.000
NO-84 30 Mar 06:28:30 06:31:22 66° 141° (SE) 06:34:12 435.350 FM
ITAMSAT 1 30 Mar 06:29:19 06:31:48 14° 303° (WNW) 06:34:18 435.822/435.867
CUBESAT XI-V 30 Mar 06:30:03 06:32:37 15° 270° (W) 06:35:10 437.345
LilacSat-2 30 Mar 06:31:54 06:34:26 17° 92° (E) 06:36:58 437.200
AO-7 30 Mar 06:33:24 06:40:45 37° 303° (WNW) 06:48:06 .
NUDT-PHONESAT 30 Mar 06:36:51 06:38:57 14° 92° (E) 06:41:02 437.300
STARS 30 Mar 06:39:56 06:42:52 17° 268° (W) 06:45:50 437.465
KAITUO 1B 30 Mar 06:48:48 06:51:37 20° 94° (E) 06:54:25 145.475/437.950
BEESAT 3 30 Mar 06:49:38 06:53:41 87° 55° (NE) 06:57:41 437.485
YUBILEINY 30 Mar 06:50:54 06:58:04 30° 82° (E) 07:05:12 435.215
XW-2D 30 Mar 06:51:08 06:54:24 28° 96° (E) 06:57:38 145.860 - 145.880
XW-2B 30 Mar 06:57:06 07:00:29 31° 97° (E) 07:03:50 145.730 - 145.750
CUTE-I 30 Mar 07:06:37 07:11:37 39° 98° (E) 07:16:35 437.470
XW-2C 30 Mar 07:07:19 07:10:55 42° 98° (E) 07:14:29 145.795 - 145.815
M-CUBED/EXP-1 PRIME 30 Mar 07:12:33 07:16:02 33° 258° (WSW) 07:19:48 437.505
BEESAT 2 30 Mar 07:14:22 07:18:25 64° 54° (NE) 07:22:25 435.950
STRAND 1 30 Mar 07:19:31 07:24:31 53° 70° (ENE) 07:29:31 437.568
DOVE 4 30 Mar 07:33:09 07:38:28 76° 285° (WNW) 07:43:38 437.250
XW-2F 30 Mar 07:56:21 07:59:57 47° 287° (WNW) 08:03:32 145.980 - 146.000
LilacSat-2 30 Mar 08:05:24 08:08:50 34° 289° (WNW) 08:12:16 437.200
NO-84 30 Mar 08:07:06 08:09:09 18° 338° (NNW) 08:11:13 435.350 FM
HO-68 30 Mar 08:07:49 08:14:18 35° 96° (E) 08:20:45 435.675
NUDT-PHONESAT 30 Mar 08:09:37 08:13:04 38° 288° (WNW) 08:16:29 437.300
KAITUO 1B 30 Mar 08:22:28 08:25:39 28° 291° (WNW) 08:28:50 145.475/437.950
XW-2D 30 Mar 08:25:34 08:28:28 21° 292° (WNW) 08:31:21 145.860 - 145.880
XW-2B 30 Mar 08:31:46 08:34:29 19° 293° (WNW) 08:37:11 145.730 - 145.750
UWE-3 30 Mar 08:39:45 08:42:29 17° 91° (E) 08:45:12 435.000/436.395/437.385
SEEDS 30 Mar 08:40:37 08:44:35 39° 98° (E) 08:48:32 437.485
FO-29 30 Mar 08:41:25 08:44:28 13° 52° (NE) 08:47:24 435.910
XW-2C 30 Mar 08:42:36 08:44:46 15° 295° (WNW) 08:46:56 145.795 - 145.815
YUBILEINY 30 Mar 08:45:34 08:54:13 64° 283° (WNW) 09:02:53 435.215
CUTE-I 30 Mar 08:46:55 08:51:32 30° 295° (WNW) 08:56:05 437.470
XW-2A 30 Mar 08:49:23 08:52:46 75° 284° (WNW) 08:56:06 145.665 - 145.685
BEESAT 2 30 Mar 08:53:43 08:55:40 13° 251° (WSW) 08:57:36 435.950
CUTE 1.7 + AOD 2 30 Mar 08:55:18 08:59:34 89° 117° (ESE) 09:03:48 437.475
UNISAT 6 30 Mar 08:56:08 08:57:47 12° 59° (ENE) 08:59:24 437.425
Oscar 11 30 Mar 08:56:52 08:58:21 11° 89° (E) 08:59:49 .
STRAND 1 30 Mar 09:00:15 09:04:00 20° 268° (W) 09:07:46 437.568
ZACube-1 30 Mar 09:10:40 09:13:50 20° 93° (E) 09:16:57 437.345
DOVE 4 30 Mar 09:13:19 09:15:11 12° 304° (WNW) 09:17:04 437.250
PCSat 30 Mar 09:16:12 09:21:25 51° 115° (ESE) 09:26:40 145.827
CUBEBUG 2 30 Mar 09:21:10 09:25:34 77° 102° (ESE) 09:29:47 437.445
